Pratica di Mare, Italy

8:56 PM CEST on October 19, 2017 (GMT +0200)
Pratica Di Mare Mil

Weather History for LIRE - December, 2013

Change the Weather History Date:

Tuesday, December 3, 2013

  Actual Average Record
Temperature  
Mean Temperature 54 °F -  
Max Temperature 63 °F 57 °F 66 °F (2003)
Min Temperature 46 °F 42 °F 33 °F (1996)
Degree Days  
Heating Degree Days 10    
Growing Degree Days 4 (Base 50)    
Moisture  
Dew Point 36 °F    
Average Humidity 52    
Maximum Humidity 87    
Minimum Humidity 18    
Precipitation  
Precipitation 0.00 in 0.14 in - ()
Sea Level Pressure  
Sea Level Pressure 30.14 in    
Wind  
Wind Speed 9 mph ()    
Max Wind Speed 15 mph    
Max Gust Speed -    
Visibility 8.1 miles    
Events      
Averages and records for this station are not official NWS values.
T = Trace of Precipitation, MM = Missing Value Source: Averaged Metar Reports

Daily Weather History Graph

Daily Weather History Graph

Search for Another Location

Airport or City:

Trip Planner

Search our weather history database for the weather conditions in past years. The results will help you decide how hot, cold, wet, or windy it might be!

Date:

Astronomy

Dec. 03, 2013 Rise Set
Actual Time 7:19 AM CET 4:40 PM CET
Civil Twilight 6:48 AM CET 5:11 PM CET
Nautical Twilight 6:14 AM CET 5:45 PM CET
Astronomical Twilight 5:40 AM CET 6:19 PM CET
Moon 7:30 AM CET (12/3) 5:26 PM CET (12/3)
Length of Visible Light 10h 22m
Length of Day
9h 20m
New Moon, 0% of the Moon is Illuminated
Dec 3
New Moon
Dec 9
First Quarter
Dec 17
Full
Dec 25
Last Quarter
Jan 1
New

Hourly Weather History & Observations

Time (CET) Temp. Dew Point Humidity Pressure Visibility Wind Dir Wind Speed Gust Speed Precip Events Conditions
12:55 AM 51.8 °F 39.2 °F 62% 30.09 in 6.2 mi NNE 12.7 mph - N/A   Scattered Clouds
1:00 AM 52 °F 40 °F 53% 30.12 in 7 mi NNE 12.7 mph - -   Partly Cloudy
1:55 AM 51.8 °F 39.2 °F 62% 30.09 in 6.2 mi NNE 15.0 mph - N/A   Scattered Clouds
2:55 AM 50.0 °F 39.2 °F 66% 30.12 in 6.2 mi NNE 12.7 mph - N/A   Scattered Clouds
6:55 AM 50.0 °F 37.4 °F 62% 30.09 in - North 9.2 mph - N/A   Clear
7:00 AM 50 °F 37 °F 49% 30.12 in 7 mi North 9.2 mph - -   Partly Cloudy
7:55 AM 50.0 °F 37.4 °F 62% 30.12 in - North 9.2 mph - N/A   Clear
8:55 AM 51.8 °F 33.8 °F 50% 30.12 in - North 10.4 mph - N/A   Clear
9:55 AM 55.4 °F 33.8 °F 44% 30.12 in - NNE 12.7 mph - N/A   Clear
10:00 AM 55 °F 34 °F 32% 30.15 in 9 mi NNE 12.7 mph - -   Scattered Clouds
10:55 AM 57.2 °F 32.0 °F 38% 30.15 in - NNE 11.5 mph - N/A   Clear
11:55 AM 62.6 °F 32.0 °F 32% 30.15 in - NNE 10.4 mph - N/A   Clear
12:55 PM 62.6 °F 30.2 °F 30% 30.12 in - NNE 9.2 mph - N/A   Clear
1:00 PM 62 °F 29 °F 18% 30.14 in 9 mi NNE 9.2 mph - -   Scattered Clouds
1:55 PM 62.6 °F 30.2 °F 30% 30.12 in - North 8.1 mph - N/A   Clear
2:55 PM 60.8 °F 28.4 °F 29% 30.12 in - North 6.9 mph - N/A   Clear
3:55 PM 59.0 °F 30.2 °F 34% 30.12 in - North 3.5 mph - N/A   Clear
4:00 PM 60 °F 31 °F 21% 30.15 in 12 mi North 3.5 mph - -   Clear
4:55 PM 53.6 °F 32.0 °F 44% 30.15 in - North 3.5 mph - N/A   Clear
5:55 PM 48.2 °F 37.4 °F 66% 30.15 in - North 3.5 mph - N/A   Clear
6:55 PM 46.4 °F 41.0 °F 81% 30.18 in - Variable 1.2 mph - N/A   Clear
7:00 PM 46 °F 41 °F 75% 30.19 in 9 mi 1.2 mph - -   Scattered Clouds
7:55 PM 50.0 °F 46.4 °F 87% 30.18 in - East 8.1 mph - N/A   Clear
8:55 PM 51.8 °F 46.4 °F 82% 30.18 in - East 6.9 mph - N/A   Clear
9:55 PM 48.2 °F 41.0 °F 76% 30.18 in - NE 5.8 mph - N/A   Clear
10:00 PM 48 °F 42 °F 72% 30.22 in 9 mi NE 5.8 mph - -